This is the latest recevied weather packets stored in our database for station/object DL4JCP-6. If no packets are shown the sender has not sent any weather packets the latest 10 day(s).
| Time | Temp. | Humidity | Pressure | Rain* | Wind** | Luminosity | Snow |
|---|---|---|---|---|---|---|---|
| 1777561144 | 14.44° C | 45% | 1029.7 hPa | 0 mm | - | - | - |
| 1777560844 | 14.44° C | 45% | 1029.8 hPa | 0 mm | - | - | - |
| 1777560544 | 13.33° C | 44% | 1029.7 hPa | 0 mm | - | - | - |
| 1777560493 | 13.33° C | 44% | 1029.7 hPa | 0 mm | - | - | - |
| 1777560244 | 13.89° C | 45% | 1029.7 hPa | 0 mm | - | - | - |
| 1777559944 | 13.89° C | 44% | 1029.7 hPa | 0 mm | - | - | - |
| 1777559644 | 13.89° C | 44% | 1029.8 hPa | 0 mm | - | - | - |
| 1777559593 | 13.89° C | 44% | 1029.8 hPa | 0 mm | - | - | - |
| 1777559344 | 13.89° C | 43% | 1029.9 hPa | 0 mm | - | - | - |
| 1777559045 | 13.89° C | 44% | 1029.9 hPa | 0 mm | - | - | - |
| 1777558746 | 13.89° C | 43% | 1030 hPa | 0 mm | - | - | - |
| 1777558696 | 13.89° C | 43% | 1030 hPa | 0 mm | - | - | - |
| 1777558447 | 14.44° C | 42% | 1030.1 hPa | 0 mm | - | - | - |
| 1777558146 | 14.44° C | 42% | 1030.1 hPa | 0 mm | - | - | - |
| 1777557845 | 13.89° C | 44% | 1030 hPa | 0 mm | - | - | - |
| 1777557796 | 13.89° C | 44% | 1030 hPa | 0 mm | - | - | - |
| 1777557546 | 13.33° C | 41% | 1029.9 hPa | 0 mm | - | - | - |
| 1777557245 | 14.44° C | 41% | 1030.3 hPa | 0 mm | - | - | - |
| 1777556945 | 14.44° C | 39% | 1030.2 hPa | 0 mm | - | - | - |
| 1777556895 | 14.44° C | 39% | 1030.2 hPa | 0 mm | - | - | - |
| 1777556644 | 14.44° C | 38% | 1030.2 hPa | 0 mm | - | - | - |
| 1777556346 | 14.44° C | 39% | 1030.3 hPa | 0 mm | - | - | - |
| 1777556045 | 13.89° C | 38% | 1030.3 hPa | 0 mm | - | - | - |
| 1777555995 | 13.89° C | 38% | 1030.3 hPa | 0 mm | - | - | - |
| 1777555744 | 13.89° C | 38% | 1030.3 hPa | 0 mm | - | - | - |
* Rain latest hour (hover to see other rain measurements)
** Current wind speed in m/s (hover to see current wind gust speed)